TimeCST,TemperatureF,Dew PointF,Humidity,Sea Level PressureIn,VisibilityMPH,Wind Direction,Wind SpeedMPH,Gust SpeedMPH,PrecipitationIn,Events,Conditions,WindDirDegrees,DateUTC
12:55 AM,37.0,28.0,70,30.17,10.0,NW,11.5,-,N/A,,Clear,310,2011-11-09 06:55:00
1:55 AM,35.1,28.0,76,30.17,10.0,NW,9.2,-,N/A,,Clear,310,2011-11-09 07:55:00
2:55 AM,33.1,27.0,78,30.20,10.0,WNW,6.9,-,N/A,,Clear,300,2011-11-09 08:55:00
3:55 AM,32.0,27.0,82,30.22,10.0,WNW,10.4,-,N/A,,Clear,300,2011-11-09 09:55:00
4:55 AM,30.9,26.1,82,30.24,10.0,WNW,6.9,-,N/A,,Clear,290,2011-11-09 10:55:00
5:55 AM,30.0,25.0,82,30.26,10.0,West,8.1,-,N/A,,Clear,280,2011-11-09 11:55:00
6:55 AM,30.9,25.0,79,30.28,10.0,West,9.2,-,N/A,,Clear,270,2011-11-09 12:55:00
7:55 AM,33.1,26.1,75,30.31,10.0,WNW,11.5,-,N/A,,Clear,290,2011-11-09 13:55:00
8:55 AM,37.9,27.0,65,30.33,10.0,NW,12.7,-,N/A,,Clear,310,2011-11-09 14:55:00
9:55 AM,42.1,28.9,60,30.34,10.0,NNW,13.8,-,N/A,,Clear,330,2011-11-09 15:55:00
10:55 AM,-9999,-9999,N/A,30.33,-9999.0,North,-9999.0,-,N/A,,Unknown,0,2011-11-09 16:55:00
11:55 AM,-9999,-9999,N/A,30.33,-9999.0,North,-9999.0,-,N/A,,Unknown,0,2011-11-09 17:55:00
12:55 PM,-9999,-9999,N/A,30.32,-9999.0,North,-9999.0,-,N/A,,Unknown,0,2011-11-09 18:55:00
1:55 PM,52.0,21.9,31,30.33,10.0,NW,21.9,29.9,N/A,,Clear,310,2011-11-09 19:55:00
2:55 PM,52.0,21.9,31,30.33,10.0,NNW,17.3,26.5,N/A,,Clear,330,2011-11-09 20:55:00
3:55 PM,51.1,21.9,32,30.34,10.0,NNW,19.6,24.2,N/A,,Clear,330,2011-11-09 21:55:00
4:55 PM,48.9,19.9,32,30.35,10.0,NNW,15.0,23.0,N/A,,Clear,330,2011-11-09 22:55:00
5:55 PM,42.1,21.9,45,30.36,10.0,NNW,5.8,-,N/A,,Clear,330,2011-11-09 23:55:00
6:55 PM,39.9,21.9,49,30.37,10.0,NNW,4.6,-,N/A,,Clear,330,2011-11-10 00:55:00
7:55 PM,39.2,21.2,49,30.34,10.0,WNW,4.6,-,N/A,,Clear,300,2011-11-10 01:55:00
8:55 PM,36.0,21.9,57,30.38,10.0,West,6.9,-,N/A,,Clear,270,2011-11-10 02:55:00
9:55 PM,36.0,21.9,57,30.38,10.0,West,6.9,-,N/A,,Clear,260,2011-11-10 03:55:00
10:55 PM,34.0,21.9,61,30.35,10.0,West,8.1,-,N/A,,Clear,270,2011-11-10 04:55:00
11:55 PM,35.1,21.0,57,30.34,10.0,West,8.1,-,N/A,,Clear,270,2011-11-10 05:55:00